STARLINK-3860, 52477

Orbit data source: Space-Track

STARLINK-3860, 52477 is a payload satellite owned by SpaceX/Seattle (US) in LEO that was launched on Fri, 06 May 2022 UTC via an FALCON 9 launch vehicle from the Air Force Eastern Test Range (AFETR). Payload-class satellites include a variety of spacecraft equipped with specific instruments for various scientific and technological missions. These include communications satellites like Starlink; space stations such as the ISS; scientific satellites like the Hubble; Earth observation satellites from companies like Planet Labs, Umbra, and HawkEye 360; GPS; miniature CubeSats for education and research; and military/defense satellites.

Loading next visibility...
Identifier
52477, 2022-049AC
Orbit
LEO
Country
Flag of USUS
Related business
Manufacturer
SpaceX/Seattle
Mission
Operational Commercial Communications
Bus & Motor
STARLINK, Unknown motor
Mass
297 kg wet, ~220 kg dry
Launch date (UTC)
2022-05-06 (4 years ago)
Launch vehicle
FALCON 9
Launch site
Air Force Eastern Test Range (AFETR)
Object type
Payload
Rocket body
Debris
Shape & HBR
Box + 1 Pan, 10.1 m
Radar Cross Section
13.562 m², Large (>1 m²)

Expand to show TLE details & history
Last TLE update: 15 hours ago

TLE from 15 hours ago
0 STARLINK-3860
1 52477U 22049AC  26235.78883690  .00001406  00000-0  52737-4 0  9998
2 52477  53.1613  12.9104 0000754  68.0701 292.0382 15.34390845238934
Epoch: 2026-08-23T18:55Z
TLE epoch observation values (Epoch: 2026-08-23T18:55:55.508Z)
Latitude
0.00002°
Longitude
116.84927°
Altitude
463.438 km
Speed
7.636 km/s
True Right ascension
00h 51m 38s
True Declination
0° 00' 00"
Sunlit
Object was in full shadow at epoch
Visualization orbit readout
Latitude
Unknown
Longitude
Unknown
Altitude
Unknown
Speed
Unknown
Apparent Right ascension
Unknown
Apparent Declination
Unknown
Sunlit
N/A
Visualization observer readout
Local Sidereal Time
00:48:06
Azimuth
Unknown
Elevation
Unknown
Doppler factor
Unknown
Orbital elements
Apogee altitude
463.503 km
Perigee altitude
462.471 km
Semi-major axis
6,841.124 km
Eccentricity
0.00008
Inclination
53.1613°
RAAN
12.9104°
Arg. of periapsis
68.0701°
True anomaly
292.03019°
Mean anomaly
292.0382°
Eccentric anomaly
292.0342°
Mean motion
3.83576 °/min
Orbital period
93.85 mins
BSTAR
0.000052737
Loading maneuver chart data...
Computing Atmospheric mass density...
Loading historical data...
Loading historical data...
Loading historical data...
Loading historical data...
Loading historical data...
Loading historical data...
Loading historical data...

Documentation

Showing up to 5 results
|